This is the latest recevied weather packets stored in our database for station/object K5GTX. If no packets are shown the sender has not sent any weather packets the latest 10 day(s).
| Time | Temp. | Humidity | Pressure | Rain* | Wind** | Luminosity | Snow |
|---|---|---|---|---|---|---|---|
| 1777900797 | 18.33° C | 99% | 1020.1 hPa | 0 mm | - | 89 W/m² | - |
| 1777900494 | 18.33° C | 99% | 1020.1 hPa | 0 mm | - | 76 W/m² | - |
| 1777900191 | 18.33° C | 99% | 1020 hPa | 0 mm | - | 64 W/m² | - |
| 1777899887 | 17.78° C | 99% | 1020 hPa | 0 mm | - | 70 W/m² | - |
| 1777899584 | 17.78° C | 99% | 1019.6 hPa | 0 mm | - | 71 W/m² | - |
| 1777899282 | 17.78° C | 99% | 1019.8 hPa | 0 mm | - | 70 W/m² | - |
| 1777898979 | 17.78° C | 99% | 1019.9 hPa | 0 mm | - | 56 W/m² | - |
| 1777898676 | 17.78° C | 99% | 1019.8 hPa | 0 mm | - | 50 W/m² | - |
| 1777898373 | 17.78° C | 99% | 1019.8 hPa | 0 mm | - | 48 W/m² | - |
| 1777898071 | 17.22° C | 99% | 1019.6 hPa | 0 mm | - | 42 W/m² | - |
| 1777897767 | 17.22° C | 99% | 1019.8 hPa | 0 mm | - | 38 W/m² | - |
| 1777897463 | 17.22° C | 99% | 1019.7 hPa | 0 mm | - | 35 W/m² | - |
| 1777897159 | 17.22° C | 99% | 1019.7 hPa | 0 mm | - | 31 W/m² | - |
| 1777896855 | 17.22° C | 99% | 1019.8 hPa | 0 mm | - | 29 W/m² | - |
| 1777896553 | 17.22° C | 99% | 1019.5 hPa | 0 mm | - | 16 W/m² | - |
| 1777896250 | 17.22° C | 99% | 1019.5 hPa | 0 mm | - | 23 W/m² | - |
| 1777895948 | 17.22° C | 99% | 1019.4 hPa | 0 mm | - | 17 W/m² | - |
| 1777895645 | 17.22° C | 99% | 1019.3 hPa | 0 mm | - | 13 W/m² | - |
| 1777895343 | 16.67° C | 99% | 1019.4 hPa | 0 mm | - | 9 W/m² | - |
| 1777895041 | 16.67° C | 99% | 1019.3 hPa | 0 mm | - | 4 W/m² | - |
| 1777894737 | 16.67° C | 99% | 1019.5 hPa | 0 mm | - | 1 W/m² | - |
| 1777894434 | 16.67° C | 99% | 1019.2 hPa | 0 mm | - | 0 W/m² | - |
| 1777894132 | 16.67° C | 99% | 1019.3 hPa | 0 mm | - | 0 W/m² | - |
| 1777893828 | 16.67° C | 99% | 1019.3 hPa | 0 mm | - | 0 W/m² | - |
| 1777893525 | 16.67° C | 99% | 1019.4 hPa | 0 mm | - | 0 W/m² | - |
* Rain latest hour (hover to see other rain measurements)
** Current wind speed in m/s (hover to see current wind gust speed)